{"data":{"norad_id":62554,"epoch":"2026-05-25T02:22:25.468032Z","epoch_age_seconds":60431,"freshness":"FRESH","line1":"1 62554U 25006A   26145.09890588  .00214209  00000+0  16266-2 0  9990","line2":"2 62554  43.0018  38.9644 0001210 262.9284  97.1446 15.70892612 78626","mean_motion":15.70892612,"eccentricity":0.000121,"inclination_deg":43.0018,"raan_deg":38.9644,"arg_perigee_deg":262.9284,"mean_anomaly_deg":97.1446,"bstar":0.0016266,"rev_number":7862,"period_min":91.667628264331,"perigee_km":355.52981853842,"apogee_km":357.1595631076,"semimajor_km":6734.481690823,"source":"CELESTRAK","updated_at":"2026-05-25T13:38:19.706400Z"}}